#timestamp,LO_Frequency,Hit,StdDev 
1530684015.7,286046994.2,N
1530684035.6,286046991.7,N
1530684055.4,286046992.2,N
1530684075.2,286046990.9,N
1530684095.1,286046991.0,N
1530684096.0,286046991.0,N
1530684115.8,286046993.2,N
1530684135.7,286046990.1,N
1530684155.5,286046991.7,N
1530684175.3,286046994.1,N
1530684195.2,286046994.1,N
1530684215.0,286046994.8,N
1530684215.9,286046994.8,N
1530684235.7,286046993.8,N
1530684255.6,286046994.2,N
1530684275.4,286046992.5,Y
1530684295.3,286047001.1,P
1530684315.1,286046998.9,N
1530684335.8,286046997.2,N
1530684355.7,286046997.4,N
1530684375.5,286046995.3,N
1530684395.4,286046997.5,N
1530684415.2,286046997.7,N
1530684435.0,286046996.7,N
1530684435.9,286046996.7,N
1530684455.8,286046999.1,N
1530684475.6,286046997.2,N
1530684495.4,286046998.9,N
1530684515.3,286046996.7,N
1530684535.1,286046997.3,N
1530684555.9,286046998.6,N
1530684575.7,286046996.6,N
1530684595.5,286046996.9,N
1530684615.4,286047001.0,N
1530684635.2,286046998.2,N
1530684655.0,286047000.2,N
1530684655.9,286047000.2,N
1530684675.8,286046998.1,N
1530684695.6,286047000.4,N
1530684715.5,286046998.3,N
1530684735.3,286047000.2,N
1530684755.1,286047000.2,N
1530684775.9,286046999.7,N
1530684795.7,286047002.0,N
1530684815.5,286046999.7,N
1530684835.4,286046999.7,N
1530684855.2,286047000.6,N
1530684875.1,286047000.3,N
1530684876.0,286047000.3,N
1530684895.8,286046998.5,N
1530684915.6,286047000.6,N
1530684935.5,286047002.6,N
1530684955.3,286047000.4,N
1530684975.1,286046998.2,N
1530684995.9,286047001.2,N
1530685015.7,286046999.3,N
1530685035.6,286046999.5,N
1530685055.4,286047001.2,N
1530685075.2,286047000.3,N
1530685095.1,286047000.6,N
1530685096.0,286047000.6,N
1530685115.8,286046998.5,N
1530685135.7,286046998.6,N
1530685155.5,286047001.0,N
1530685175.3,286046998.7,N
1530685195.2,286046998.9,N
1530685215.9,286046996.9,N
1530685235.7,286046999.6,N
1530685255.6,286046999.4,N
1530685275.4,286046998.4,N
1530685295.3,286046998.4,N
1530685315.1,286046999.4,N
1530685316.0,286046999.4,N
1530685335.8,286046999.5,N
1530685355.7,286046994.9,Y
1530685375.5,286046999.0,P
1530685395.3,286046999.0,P
1530685415.2,286047001.2,P
1530685435.0,286046997.1,Y
1530685435.9,286046997.1,P
1530685455.8,286046997.3,N
1530685475.6,286046997.4,N
1530685495.4,286046999.5,N
1530685515.3,286046999.3,N
1530685535.1,286046997.0,N
1530685555.9,286046999.2,N
1530685575.7,286046999.2,N
1530685595.5,286046999.3,N
1530685615.4,286046996.8,N
1530685635.2,286047001.0,N
1530685655.0,286047000.7,N
1530685655.9,286047000.7,N
1530685675.8,286046998.9,N
1530685695.6,286046998.8,N
1530685715.5,286047000.8,N
1530685735.3,286047001.1,N
1530685755.1,286046998.7,N
1530685775.9,286047001.1,N
1530685795.7,286046999.1,N
1530685815.5,286046998.8,N
1530685835.4,286046998.5,N
1530685855.2,286046998.3,N
1530685875.1,286046999.5,N
1530685876.0,286046999.5,N
1530685895.8,286046996.8,N
1530685915.6,286046996.6,N
1530685935.5,286046999.2,N
1530685955.3,286046998.4,N
1530685975.2,286046997.1,N
1530685995.9,286046999.1,N
1530686015.7,286046997.1,N
1530686035.6,286046997.9,N
1530686055.4,286046997.0,N
1530686075.2,286046997.0,N
1530686095.1,286046997.1,N
1530686096.0,286046997.1,N
1530686115.8,286046997.0,N
1530686135.7,286046997.5,N
1530686155.5,286046997.3,N
1530686175.3,286046994.9,Y
1530686195.2,286046997.4,P
1530686215.0,286046999.0,N
1530686215.9,286046999.0,N
1530686235.8,286046998.7,N
1530686255.6,286046998.3,N
1530686275.4,286046998.3,Y
1530686295.3,286047002.8,P
1530686315.1,286046999.9,N
1530686335.9,286046999.9,N
1530686355.7,286047000.5,N
1530686375.5,286047001.1,N
1530686395.4,286046998.3,N
1530686415.2,286046998.5,N
1530686435.0,286047001.0,N
1530686435.9,286047001.0,N
1530686455.8,286047001.2,N
1530686475.6,286047000.7,N
1530686495.5,286046999.7,N
1530686515.3,286047000.7,N
1530686535.1,286047001.2,N
1530686555.9,286047001.0,N
1530686575.7,286046998.2,N
1530686595.6,286046998.2,N
1530686615.4,286046998.5,N
1530686635.2,286046998.3,N
1530686655.1,286047000.7,N
1530686656.0,286047000.7,N
1530686675.8,286047000.6,N
1530686695.6,286047000.6,N
1530686715.5,286046998.7,N
1530686735.3,286046998.8,N
1530686755.2,286046998.9,N
1530686775.9,286046999.0,N
1530686795.7,286046998.3,N
1530686815.6,286046998.4,N
1530686835.4,286046998.5,N
1530686855.2,286046999.9,N
1530686875.1,286047000.1,N
1530686876.0,286047000.1,N
1530686895.8,286047004.2,Y
1530686915.7,286047001.4,P
1530686935.5,286047001.8,N
1530686955.3,286047001.3,N
1530686975.2,286047004.0,Y
1530686995.0,286047000.9,P
1530686995.9,286047000.9,P
1530687015.8,286047000.5,P
1530687035.6,286047001.2,Y
1530687055.4,286047002.8,P
1530687075.3,286047000.3,N
1530687095.1,286046998.7,N
1530687115.8,286047000.7,N
1530687135.7,286047000.4,N
1530687155.5,286047000.2,N
1530687175.4,286047001.0,N
1530687195.2,286046998.5,N
1530687215.0,286046998.5,N
1530687215.9,286046998.5,N
1530687235.8,286046998.7,N
1530687255.6,286046999.0,N
1530687275.4,286047000.6,N
1530687295.3,286046999.9,N
1530687315.1,286047000.6,N
1530687335.9,286047000.1,N
1530687355.7,286046998.1,N
1530687375.5,286046996.9,N
1530687395.4,286046999.0,N
1530687415.2,286046998.9,N
1530687435.0,286046998.6,N
1530687436.0,286046998.6,N
1530687455.8,286046996.6,N
1530687475.6,286046996.9,N
1530687495.5,286046997.0,N
1530687515.3,286046996.9,N
1530687535.1,286046996.7,N
1530687555.9,286046998.7,N
1530687575.7,286046998.7,N
1530687595.6,286046998.3,N
